TimeAKST,TemperatureF,Dew PointF,Humidity,Sea Level PressureIn,VisibilityMPH,Wind Direction,Wind SpeedMPH,Gust SpeedMPH,PrecipitationIn,Events,Conditions,WindDirDegrees,DateUTC
12:53 AM,-8.0,-13.0,79,30.28,9.0,Calm,Calm,-,0.00,Snow,Light Snow,0,2012-11-22 09:53:00
1:53 AM,-8.0,-13.0,79,30.29,9.0,Calm,Calm,-,0.00,Snow,Light Snow,0,2012-11-22 10:53:00
3:53 AM,-14.1,-18.9,79,30.31,10.0,SE,3.5,-,0.00,,Mostly Cloudy,140,2012-11-22 12:53:00
4:53 AM,-17.0,-22.0,78,30.33,10.0,Calm,Calm,-,N/A,,Mostly Cloudy,0,2012-11-22 13:53:00
5:53 AM,-20.0,-26.0,74,30.32,10.0,Calm,Calm,-,N/A,,Scattered Clouds,0,2012-11-22 14:53:00
6:53 AM,-22.0,-27.9,74,30.33,10.0,Calm,Calm,-,N/A,,Partly Cloudy,0,2012-11-22 15:53:00
7:53 AM,-25.1,-29.9,78,30.35,10.0,Calm,Calm,-,N/A,,Partly Cloudy,0,2012-11-22 16:53:00
8:53 AM,-25.1,-31.0,74,30.35,10.0,Calm,Calm,-,N/A,,Scattered Clouds,0,2012-11-22 17:53:00
9:53 AM,-26.0,-32.1,73,30.35,10.0,Calm,Calm,-,N/A,,Scattered Clouds,0,2012-11-22 18:53:00
10:53 AM,-22.0,-27.0,77,30.34,10.0,Calm,Calm,-,N/A,,Scattered Clouds,0,2012-11-22 19:53:00
11:53 AM,-18.9,-24.0,78,30.32,10.0,Calm,Calm,-,N/A,,Scattered Clouds,0,2012-11-22 20:53:00
12:53 PM,-18.9,-24.0,78,30.30,10.0,Calm,Calm,-,N/A,,Mostly Cloudy,0,2012-11-22 21:53:00
1:53 PM,-15.0,-20.9,75,30.27,5.0,Calm,Calm,-,0.00,Snow,Light Snow,0,2012-11-22 22:53:00
2:53 PM,-15.0,-20.9,75,30.25,9.0,Calm,Calm,-,0.00,Snow,Light Snow,0,2012-11-22 23:53:00
3:53 PM,-14.1,-20.0,75,30.25,8.0,SSE,3.5,-,0.00,Snow,Light Snow,160,2012-11-23 00:53:00
4:53 PM,-13.0,-18.9,75,30.23,5.0,Calm,Calm,-,0.00,Snow,Light Snow,0,2012-11-23 01:53:00
5:53 PM,-13.0,-18.0,78,30.22,7.0,Calm,Calm,-,0.00,Snow,Light Snow,0,2012-11-23 02:53:00
6:53 PM,-11.9,-17.0,78,30.21,8.0,Calm,Calm,-,0.00,Snow,Light Snow,0,2012-11-23 03:53:00
7:53 PM,-11.0,-16.1,78,30.20,6.0,Calm,Calm,-,0.00,Snow,Light Snow,0,2012-11-23 04:53:00
8:53 PM,-9.9,-16.1,74,30.18,9.0,Calm,Calm,-,0.00,Snow,Light Snow,0,2012-11-23 05:53:00
9:53 PM,-9.0,-15.0,75,30.18,9.0,Calm,Calm,-,0.00,Snow,Light Snow,0,2012-11-23 06:53:00
10:53 PM,-9.0,-15.0,75,30.16,8.0,Calm,Calm,-,0.00,Snow,Light Snow,0,2012-11-23 07:53:00
11:53 PM,-9.0,-14.1,79,30.14,9.0,Calm,Calm,-,0.00,Snow,Light Snow,0,2012-11-23 08:53:00